Location: Caltech
(34.1382°N, 118.1253°W)
Time: 01:45:24
(UTC-07:00)

NOSS 3-2 (A) - Visible Passes

Search period start: 25 May 2017 00:00
Search period end: 04 June 2017 00:00
Orbit: 880 x 1329 km, 63.4° (Epoch: 10 May)

Date Brightness Start Highest point End Pass type
(mag) Time Alt. Az. Time Alt. Az. Time Alt. Az.
25 May 5.7 21:04:16 10° NW 21:10:43 29° WSW 21:17:27 10° SSW visible
26 May 5.1 20:18:13 10° NW 20:25:33 46° WSW 20:33:17 10° S visible
27 May 6.5 21:27:43 10° W 21:30:16 12° WSW 21:32:50 10° WSW visible
28 May 6.2 20:39:38 10° WNW 20:45:17 22° WSW 20:51:07 10° SSW visible
